This is the latest recevied weather packets stored in our database for station/object N9BLE. If no packets are shown the sender has not sent any weather packets the latest 10 day(s).
| Time | Temp. | Humidity | Pressure | Rain* | Wind** | Luminosity | Snow |
|---|---|---|---|---|---|---|---|
| 1777919936 | 26.67° C | 29% | 1003.6 hPa | 0 mm | - | 760 W/m² | - |
| 1777919634 | 26.67° C | 33% | 1003.6 hPa | 0 mm | - | 787 W/m² | - |
| 1777919331 | 26.67° C | 33% | 1003.5 hPa | 0 mm | - | 754 W/m² | - |
| 1777919029 | 26.11° C | 31% | 1003.6 hPa | 0 mm | - | 752 W/m² | - |
| 1777918725 | 26.11° C | 33% | 1003.8 hPa | 0 mm | - | 754 W/m² | - |
| 1777918423 | 25.56° C | 34% | 1003.7 hPa | 0 mm | - | 762 W/m² | - |
| 1777918122 | 25.56° C | 32% | 1003.7 hPa | 0 mm | - | 761 W/m² | - |
| 1777917819 | 25.56° C | 33% | 1003.8 hPa | 0 mm | - | 756 W/m² | - |
| 1777917518 | 25.56° C | 33% | 1003.8 hPa | 0 mm | - | 759 W/m² | - |
| 1777917214 | 25.56° C | 36% | 1003.9 hPa | 0 mm | - | 757 W/m² | - |
| 1777916912 | 25° C | 35% | 1004 hPa | 0 mm | - | 761 W/m² | - |
| 1777916609 | 25.56° C | 39% | 1004.1 hPa | 0 mm | - | 757 W/m² | - |
| 1777916306 | 25° C | 38% | 1004.3 hPa | 0 mm | - | 763 W/m² | - |
| 1777916003 | 25° C | 38% | 1004.4 hPa | 0 mm | - | 751 W/m² | - |
| 1777915700 | 24.44° C | 36% | 1004.6 hPa | 0 mm | - | 743 W/m² | - |
| 1777915396 | 25° C | 35% | 1004.8 hPa | 0 mm | - | 756 W/m² | - |
| 1777915092 | 24.44° C | 39% | 1004.8 hPa | 0 mm | - | 752 W/m² | - |
| 1777914790 | 24.44° C | 40% | 1004.5 hPa | 0 mm | - | 561 W/m² | - |
| 1777914487 | 24.44° C | 40% | 1004.7 hPa | 0 mm | - | 239 W/m² | - |
| 1777914184 | 23.89° C | 41% | 1004.7 hPa | 0 mm | - | 93 W/m² | - |
| 1777913880 | 23.89° C | 40% | 1005.1 hPa | 0 mm | - | 77 W/m² | - |
| 1777913576 | 23.33° C | 40% | 1004.9 hPa | 0 mm | - | 108 W/m² | - |
| 1777913272 | 23.33° C | 44% | 1005.2 hPa | 0 mm | - | 67 W/m² | - |
| 1777912970 | 23.33° C | 38% | 1005.1 hPa | 0 mm | - | 163 W/m² | - |
| 1777912666 | 22.78° C | 41% | 1005.3 hPa | 0 mm | - | 112 W/m² | - |
* Rain latest hour (hover to see other rain measurements)
** Current wind speed in m/s (hover to see current wind gust speed)